Location: The Saddle
(36.8333°N, 80.3417°W)
Time: 04:07:58
(UTC-05:00)

A-11 Canister half - All Passes

Search period start: 28 January 2022 00:00
Search period end: 07 February 2022 00:00
Orbit: 1524 x 1684 km, 47.3° (Epoch: 27 January)

Date Brightness Start Highest point End Pass type
(mag) Time Alt. Az. Time Alt. Az. Time Alt. Az.
28 Jan - 07:56:28 10° SSE 08:02:18 19° SE 08:08:08 10° E daylight
28 Jan - 09:56:49 10° SW 10:06:01 71° SE 10:15:22 10° ENE daylight
28 Jan - 12:02:19 10° W 12:11:24 54° NNW 12:20:44 10° ENE daylight
28 Jan - 14:09:04 10° WNW 14:18:04 46° N 14:27:22 10° E daylight
28 Jan - 16:14:36 10° WNW 16:24:15 78° NNE 16:34:13 10° ESE daylight
28 Jan - 18:20:09 10° WNW 18:28:51 38° SW 18:37:47 10° SSE visible
29 Jan - 07:35:17 10° SSE 07:40:43 17° SE 07:46:08 10° E daylight
29 Jan - 09:35:12 10° SW 09:44:22 67° SE 09:53:40 10° ENE daylight
29 Jan - 11:40:34 10° W 11:49:41 55° NNW 11:59:00 10° ENE daylight
29 Jan - 13:47:20 10° WNW 13:56:19 46° N 14:05:33 10° ENE daylight
29 Jan - 15:52:56 10° WNW 16:02:33 76° NNE 16:12:28 10° ESE daylight
29 Jan - 17:58:24 10° WNW 18:07:12 41° SW 18:16:16 10° SSE visible
30 Jan - 07:14:09 10° SSE 07:19:08 16° ESE 07:24:05 10° E daylight
30 Jan - 09:13:37 10° SW 09:22:44 64° SE 09:31:57 10° ENE daylight
30 Jan - 11:18:49 10° W 11:27:57 57° NNW 11:37:17 10° ENE daylight
30 Jan - 13:25:37 10° WNW 13:34:33 45° N 13:43:44 10° ENE daylight
30 Jan - 15:31:15 10° WNW 15:40:50 73° NNE 15:50:43 10° ESE daylight
30 Jan - 17:36:40 10° WNW 17:45:33 43° SW 17:54:43 10° SSE daylight
31 Jan - 06:53:06 10° SSE 06:57:32 14° ESE 07:01:58 10° E visible
31 Jan - 08:52:01 10° SW 09:01:05 61° SE 09:10:14 10° ENE daylight
31 Jan - 10:57:05 10° W 11:06:13 58° NNW 11:15:34 10° ENE daylight
31 Jan - 13:03:53 10° WNW 13:12:47 45° N 13:21:57 10° ENE daylight
31 Jan - 15:09:35 10° WNW 15:19:06 71° NNE 15:28:57 10° ESE daylight
31 Jan - 17:14:56 10° WNW 17:23:55 45° SW 17:33:09 10° SSE daylight
01 Feb - 06:32:09 10° SSE 06:35:57 13° ESE 06:39:45 10° E visible
01 Feb - 08:30:26 10° SSW 08:39:26 58° SE 08:48:32 10° ENE daylight
01 Feb - 10:35:21 10° WSW 10:44:30 60° NNW 10:53:50 10° ENE daylight
01 Feb - 12:42:09 10° WNW 12:51:02 45° N 13:00:08 10° ENE daylight
01 Feb - 14:47:55 10° WNW 14:57:23 69° NNE 15:07:11 10° ESE daylight
01 Feb - 16:53:13 10° WNW 17:02:15 48° SW 17:11:36 10° SSE daylight
02 Feb - 06:11:23 10° SE 06:14:22 12° ESE 06:17:21 10° ESE visible
02 Feb - 08:08:51 10° SSW 08:17:49 55° SE 08:26:49 10° ENE daylight
02 Feb - 10:13:37 10° WSW 10:22:48 61° NNW 10:32:08 10° ENE daylight
02 Feb - 12:20:25 10° WNW 12:29:16 44° N 12:38:20 10° ENE daylight
02 Feb - 14:26:15 10° WNW 14:35:40 66° NNE 14:45:25 10° ESE daylight
02 Feb - 16:31:30 10° WNW 16:40:36 50° SW 16:50:01 10° SSE daylight
02 Feb - 18:42:50 10° WSW 18:44:07 10° WSW 18:45:24 10° SW visible
03 Feb - 05:51:00 10° SE 05:52:47 11° ESE 05:54:35 10° ESE visible
03 Feb - 07:47:17 10° SSW 07:56:11 52° SE 08:05:05 10° ENE daylight
03 Feb - 09:51:53 10° WSW 10:01:05 63° NNW 10:10:26 10° ENE daylight
03 Feb - 11:58:40 10° WNW 12:07:31 44° N 12:16:34 10° ENE daylight
03 Feb - 14:04:34 10° WNW 14:13:57 64° NNE 14:23:38 10° ESE daylight
03 Feb - 16:09:47 10° WNW 16:18:57 53° SW 16:28:24 10° SSE daylight
03 Feb - 18:19:43 10° WSW 18:22:31 11° WSW 18:25:19 10° SW visible
04 Feb - 07:25:44 10° SSW 07:34:33 50° SE 07:43:23 10° ENE daylight
04 Feb - 09:30:09 10° WSW 09:39:22 65° NNW 09:48:43 10° ENE daylight
04 Feb - 11:36:56 10° WNW 11:45:45 44° N 11:54:46 10° ENE daylight
04 Feb - 13:42:53 10° WNW 13:52:14 62° NNE 14:01:51 10° ESE daylight
04 Feb - 15:48:05 10° WNW 15:57:18 55° SW 16:06:49 10° SSE daylight
04 Feb - 17:57:13 10° W 18:00:54 13° WSW 18:04:37 10° SW daylight
05 Feb - 07:04:11 10° SSW 07:12:56 47° SE 07:21:39 10° ENE daylight
05 Feb - 09:08:26 10° WSW 09:17:40 67° NNW 09:27:02 10° ENE daylight
05 Feb - 11:15:11 10° WNW 11:24:00 44° N 11:33:00 10° ENE daylight
05 Feb - 13:21:13 10° WNW 13:30:30 61° NNE 13:40:04 10° ESE daylight
05 Feb - 15:26:24 10° WNW 15:35:39 58° SW 15:45:11 10° SSE daylight
05 Feb - 17:34:56 10° W 17:39:18 14° WSW 17:43:43 10° SSW daylight
06 Feb - 06:42:39 10° SSW 06:51:18 44° SE 06:59:55 10° ENE visible
06 Feb - 08:46:42 10° WSW 08:55:59 70° NNW 09:05:20 10° ENE daylight
06 Feb - 10:53:27 10° WNW 11:02:14 44° N 11:11:13 10° ENE daylight
06 Feb - 12:59:31 10° WNW 13:08:47 59° NNE 13:18:18 10° E daylight
06 Feb - 15:04:41 10° WNW 15:13:58 61° SW 15:23:33 10° SE daylight
06 Feb - 17:12:47 10° W 17:17:41 15° WSW 17:22:40 10° SSW daylight
